�������C�����ː����j�^�v���󋵏��
Date,Time,Cs137(Bq/L),Cs134(Bq/L),�S��(Bq/L)
2022/07/10,00:00,ND,ND,22
2022/07/10,00:10,ND,ND,23
2022/07/10,00:20,0.058,ND,24
2022/07/10,00:30,0.058,ND,23
2022/07/10,00:40,0.062,ND,26
2022/07/10,00:50,0.062,ND,24
2022/07/10,01:00,0.066,ND,26
2022/07/10,01:10,0.070,ND,27
2022/07/10,01:20,ND,ND,27
2022/07/10,01:30,ND,ND,26
2022/07/10,01:40,ND,ND,23
2022/07/10,01:50,ND,ND,25
2022/07/10,02:00,ND,ND,25
2022/07/10,02:10,ND,ND,22
2022/07/10,02:20,ND,ND,23
2022/07/10,02:30,ND,ND,23
2022/07/10,02:40,0.058,ND,22
2022/07/10,02:50,ND,ND,19
2022/07/10,03:00,ND,ND,16
2022/07/10,03:10,ND,ND,18
2022/07/10,03:20,ND,ND,16
2022/07/10,03:30,ND,ND,19
2022/07/10,03:40,ND,ND,21
2022/07/10,03:50,ND,ND,21
2022/07/10,04:00,ND,ND,23
2022/07/10,04:10,ND,ND,23
2022/07/10,04:20,ND,ND,21
2022/07/10,04:30,ND,ND,20
2022/07/10,04:40,ND,ND,21
2022/07/10,04:50,ND,ND,24
2022/07/10,05:00,ND,ND,24
2022/07/10,05:10,ND,ND,25
2022/07/10,05:20,ND,ND,24
2022/07/10,05:30,ND,ND,24
2022/07/10,05:40,ND,ND,22
2022/07/10,05:50,ND,ND,21
2022/07/10,06:00,ND,ND,23
2022/07/10,06:10,ND,ND,22
2022/07/10,06:20,ND,ND,24
2022/07/10,06:30,ND,ND,24
2022/07/10,06:40,ND,ND,26
2022/07/10,06:50,ND,ND,25
2022/07/10,07:00,ND,ND,26
2022/07/10,07:10,0.059,ND,27
2022/07/10,07:20,0.064,ND,26
2022/07/10,07:30,0.057,ND,23
2022/07/10,07:40,0.049,ND,20
2022/07/10,07:50,0.055,ND,17
2022/07/10,08:00,0.052,ND,14
2022/07/10,08:10,ND,ND,11
2022/07/10,08:20,0.054,ND,13
2022/07/10,08:30,0.052,ND,13
2022/07/10,08:40,0.052,ND,15
2022/07/10,08:50,0.060,ND,17
2022/07/10,09:00,0.062,ND,17
2022/07/10,09:10,0.074,ND,21
2022/07/10,09:20,ND,ND,20
2022/07/10,09:30,ND,ND,20
2022/07/10,09:40,ND,ND,20
2022/07/10,09:50,0.070,ND,21
2022/07/10,10:00,0.063,ND,21
2022/07/10,10:10,0.067,ND,21
2022/07/10,10:20,0.051,ND,24
2022/07/10,10:30,0.069,ND,23
2022/07/10,10:40,0.053,ND,22
2022/07/10,10:50,0.049,ND,22
2022/07/10,11:00,ND,ND,24
2022/07/10,11:10,ND,ND,24
2022/07/10,11:20,0.053,ND,20
2022/07/10,11:30,0.052,ND,22
2022/07/10,11:40,ND,ND,23
2022/07/10,11:50,ND,ND,22
2022/07/10,12:00,ND,ND,20
2022/07/10,12:10,ND,ND,20
2022/07/10,12:20,ND,ND,22
2022/07/10,12:30,ND,ND,23
2022/07/10,12:40,ND,ND,21
2022/07/10,12:50,ND,ND,21
2022/07/10,13:00,0.061,ND,20
2022/07/10,13:10,0.072,ND,20
2022/07/10,13:20,ND,ND,19
2022/07/10,13:30,0.076,ND,19
2022/07/10,13:40,0.072,ND,20
2022/07/10,13:50,0.077,ND,19
2022/07/10,14:00,0.081,ND,18
2022/07/10,14:10,0.073,ND,17
2022/07/10,14:20,0.073,ND,19
2022/07/10,14:30,0.065,ND,20
2022/07/10,14:40,0.074,ND,22
2022/07/10,14:50,0.063,ND,25
2022/07/10,15:00,0.059,ND,28
2022/07/10,15:10,ND,ND,26
2022/07/10,15:20,ND,ND,27
2022/07/10,15:30,0.052,ND,27
2022/07/10,15:40,ND,ND,24
2022/07/10,15:50,ND,ND,21
2022/07/10,16:00,ND,ND,20
2022/07/10,16:10,ND,ND,21
2022/07/10,16:20,ND,ND,20
2022/07/10,16:30,ND,ND,17
2022/07/10,16:40,ND,ND,20
2022/07/10,16:50,ND,ND,21
2022/07/10,17:00,ND,ND,21
2022/07/10,17:10,ND,ND,20
2022/07/10,17:20,ND,ND,18
2022/07/10,17:30,0.090,ND,22
2022/07/10,17:40,0.073,ND,21
2022/07/10,17:50,0.078,ND,20
2022/07/10,18:00,ND,ND,17
2022/07/10,18:10,0.084,ND,19
2022/07/10,18:20,0.085,ND,20
2022/07/10,18:30,0.072,ND,19
2022/07/10,18:40,0.065,ND,22
2022/07/10,18:50,ND,ND,23
2022/07/10,19:00,ND,ND,24
2022/07/10,19:10,ND,ND,26
2022/07/10,19:20,ND,ND,26
2022/07/10,19:30,ND,ND,28
2022/07/10,19:40,ND,ND,24
2022/07/10,19:50,ND,ND,22
2022/07/10,20:00,ND,ND,23
2022/07/10,20:10,ND,ND,23
2022/07/10,20:20,ND,ND,23
2022/07/10,20:30,ND,ND,18
2022/07/10,20:40,ND,ND,18
2022/07/10,20:50,ND,ND,20
2022/07/10,21:00,ND,ND,18
2022/07/10,21:10,ND,ND,15
2022/07/10,21:20,ND,ND,12
2022/07/10,21:30,ND,ND,13
2022/07/10,21:40,ND,ND,12
2022/07/10,21:50,ND,ND,ND
2022/07/10,22:00,ND,ND,10
2022/07/10,22:10,ND,ND,9.9
2022/07/10,22:20,ND,ND,12
2022/07/10,22:30,ND,ND,13
2022/07/10,22:40,ND,ND,16
2022/07/10,22:50,ND,ND,20
2022/07/10,23:00,ND,ND,18
2022/07/10,23:10,ND,ND,18
2022/07/10,23:20,ND,ND,20
2022/07/10,23:30,ND,ND,20
2022/07/10,23:40,ND,ND,18
2022/07/10,23:50,ND,ND,16
